This is the latest recevied weather packets stored in our database for station/object KB9HUO. If no packets are shown the sender has not sent any weather packets the latest 10 day(s).
| Time | Temp. | Humidity | Pressure | Rain* | Wind** | Luminosity | Snow |
|---|---|---|---|---|---|---|---|
| 1788210565 | 32.78° C | 58% | 1018.6 hPa | 0 mm | - | 48 W/m² | - |
| 1788210261 | 32.78° C | 62% | 1018.4 hPa | 0 mm | - | 47 W/m² | - |
| 1788209957 | 32.78° C | 59% | 1018.7 hPa | 0 mm | - | 48 W/m² | - |
| 1788209653 | 32.78° C | 59% | 1018.5 hPa | 0 mm | - | 47 W/m² | - |
| 1788209353 | 32.78° C | 60% | 1018.9 hPa | 0 mm | - | 131 W/m² | - |
| 1788209053 | 32.78° C | 59% | 1018.7 hPa | 0 mm | - | 56 W/m² | - |
| 1788208751 | 32.78° C | 60% | 1018.7 hPa | 0 mm | - | 120 W/m² | - |
| 1788208446 | 32.78° C | 59% | 1018.6 hPa | 0 mm | - | 61 W/m² | - |
| 1788208144 | 32.78° C | 60% | 1018.8 hPa | 0 mm | - | 53 W/m² | - |
| 1788207840 | 32.78° C | 58% | 1018.9 hPa | 0 mm | - | 121 W/m² | - |
| 1788207539 | 32.78° C | 57% | 1019 hPa | 0 mm | - | 136 W/m² | - |
| 1788207238 | 32.78° C | 59% | 1018.9 hPa | 0 mm | - | 64 W/m² | - |
| 1788206935 | 32.78° C | 60% | 1018.9 hPa | 0 mm | - | 56 W/m² | - |
| 1788206629 | 32.78° C | 60% | 1019 hPa | 0 mm | - | 74 W/m² | - |
| 1788206324 | 32.78° C | 58% | 1019 hPa | 0 mm | - | 63 W/m² | - |
| 1788206020 | 32.78° C | 58% | 1019.2 hPa | 0 mm | - | 110 W/m² | - |
| 1788205715 | 32.78° C | 59% | 1019.1 hPa | 0 mm | - | 95 W/m² | - |
| 1788205411 | 32.78° C | 59% | 1019.3 hPa | 0 mm | - | 86 W/m² | - |
| 1788205110 | 32.78° C | 60% | 1019.3 hPa | 0 mm | - | 63 W/m² | - |
| 1788204805 | 32.78° C | 60% | 1019.4 hPa | 0 mm | - | 72 W/m² | - |
| 1788204501 | 32.78° C | 61% | 1019.4 hPa | 0 mm | - | 86 W/m² | - |
| 1788204201 | 33.33° C | 61% | 1019.6 hPa | 0 mm | - | 90 W/m² | - |
| 1788203897 | 33.33° C | 59% | 1019.5 hPa | 0 mm | - | 188 W/m² | - |
| 1788203593 | 33.33° C | 58% | 1019.6 hPa | 0 mm | - | 255 W/m² | - |
| 1788203288 | 33.33° C | 60% | 1019.7 hPa | 0 mm | - | 154 W/m² | - |
* Rain latest hour (hover to see other rain measurements)
** Current wind speed in m/s (hover to see current wind gust speed)